NOAA 18 (28654 NORAD) Tracking and Keplerian Element Data

This shows tracking and keplerian element data for the satellite.

Feedback or suggestion? Click here.




ElementValue
Catalog28654
NameNOAA 18
Epoch Orbit96122
Epoch Day13.158782
Epoch Year2024
RAAN91.3464
Inclination98.8908
Eccentricity0.0014947
Argument of Perigee143.1002
Mean Anonmoly217.1201
Mean Motion14.1309835
Decay Rate3.44E-06
L11 28654U 05018A 24013.15878200 .00000344 00000+0 20749-3 0 9995
L22 28654 98.8908 91.3464 0014947 143.1002 217.1201 14.13098350961220



Live tracking and technical data element details for NOAA 18 (NORAD 28654). NOAA 18 can be tracked NOW for your location showing map with azimuth and elevation plus other details from your city location.







IsCatalogInMostPopularTable: catalog: 28654, numindb: 1661
Update: records affected: 1



GetName: 28654 NOAA 18

Hit Count: updated at: Sat, 20 Apr 2024 09:51:09 GMT